Weather History for Quillayute, WA

Change the Weather History Date:

Monday, December 20, 2010

  Actual Average Record
Temperature  
Mean Temperature 42 °F 40 °F  
Max Temperature 46 °F 46 °F 58 °F (2005)
Min Temperature 37 °F 34 °F 18 °F (1990)
Degree Days  
Heating Degree Days 23 25  
Month to date heating degree days 492  
Since 1 July heating degree days 2206  
Cooling Degree Days 0 0  
Month to date cooling degree days 0  
Year to date cooling degree days 19  
Moisture  
Dew Point 38 °F    
Average Humidity 90    
Maximum Humidity 97    
Minimum Humidity 73    
Precipitation  
Precipitation 0.49 in 0.40 in 1.77 in (2009)
Month to date precipitation 8.52  
Year to date precipitation 95.07  
Sea Level Pressure  
Sea Level Pressure 29.32 in    
Wind  
Wind Speed 11 mph (ESE)    
Max Wind Speed 22 mph    
Max Gust Speed 35 mph    
Visibility 9 miles    
Events Rain    
T = Trace of Precipitation, MM = Missing Value Source: NWS Daily Summary

Daily Weather History Graph

Daily Weather History Graph

Search for Another Location

Airport:

Trip Planner

Search our weather history database for the weather conditions in past years. The results will help you decide how hot, cold, wet, or windy it might be!

Date:

Astronomy

Dec. 20, 2010 Rise Set
Actual Time 8:04 AM PST 4:27 PM PST
Civil Twilight 7:28 AM PST 5:03 PM PST
Nautical Twilight 6:48 AM PST 5:43 PM PST
Astronomical Twilight 6:10 AM PST 6:21 PM PST
Moon 3:58 PM PST (12/20) 7:36 AM PST (12/20)
Length of Visible Light 9h 35m
Length of Day
8h 22m
Full, 100% of the Moon is Illuminated
Dec 20
Full
Dec 21
Full
Dec 27
Last Quarter
Jan 4
New
Jan 12
First Quarter

Hourly Weather History & Observations

Time (PST) Temp. Windchill Dew Point Humidity Pressure Visibility Wind Dir Wind Speed Gust Speed Precip Events Conditions
12:53 AM 37.0 °F 33.3 °F 36.0 °F 96% 29.26 in 10.0 mi ENE 4.6 mph - N/A   Overcast
1:53 AM 37.9 °F 33.5 °F 37.0 °F 97% 29.26 in 10.0 mi East 5.8 mph - N/A   Overcast
2:53 AM 37.9 °F 34.4 °F 37.0 °F 97% 29.25 in 10.0 mi ENE 4.6 mph - 0.00 in   Overcast
3:53 AM 37.9 °F 35.5 °F 37.0 °F 97% 29.25 in 10.0 mi ENE 3.5 mph - N/A   Overcast
4:53 AM 39.9 °F 33.9 °F 36.0 °F 86% 29.26 in 10.0 mi East 9.2 mph - 0.00 in   Overcast
5:53 AM 41.0 °F 35.2 °F 36.0 °F 82% 29.25 in 10.0 mi East 9.2 mph - N/A   Overcast
6:53 AM 39.9 °F 33.9 °F 36.0 °F 86% 29.25 in 10.0 mi East 9.2 mph - 0.00 in   Overcast
7:38 AM 39.2 °F 35.0 °F 37.4 °F 93% 29.25 in 6.0 mi ESE 5.8 mph - N/A Rain Light Rain
7:53 AM 39.0 °F 32.8 °F 37.0 °F 93% 29.26 in 10.0 mi East 9.2 mph 17.3 mph 0.04 in Rain Light Rain
8:02 AM 39.2 °F 33.6 °F 37.4 °F 93% 29.25 in 10.0 mi East 8.1 mph - 0.00 in Rain Light Rain
8:18 AM 39.2 °F 34.2 °F 37.4 °F 93% 29.26 in 10.0 mi ESE 6.9 mph - 0.01 in Rain Light Rain
8:53 AM 39.9 °F 33.9 °F 37.9 °F 93% 29.27 in 10.0 mi East 9.2 mph - 0.10 in Rain Light Rain
9:53 AM 42.1 °F 36.6 °F 39.9 °F 92% 29.28 in 10.0 mi ESE 9.2 mph - 0.00 in   Overcast
10:53 AM 43.0 °F 37.2 °F 39.0 °F 86% 29.30 in 10.0 mi SE 10.4 mph 18.4 mph 0.00 in   Mostly Cloudy
11:53 AM 44.1 °F 38.1 °F 39.0 °F 82% 29.30 in 10.0 mi SE 11.5 mph 23.0 mph 0.00 in Rain Light Rain
12:53 PM 45.0 °F 39.3 °F 39.0 °F 80% 29.29 in 10.0 mi ESE 11.5 mph 27.6 mph 0.00 in   Mostly Cloudy
1:53 PM 46.0 °F 40.2 °F 39.0 °F 76% 29.28 in 10.0 mi SE 12.7 mph 23.0 mph 0.00 in   Scattered Clouds
2:53 PM 46.0 °F 40.6 °F 37.9 °F 73% 29.29 in 10.0 mi SE 11.5 mph 25.3 mph 0.00 in Rain Light Rain
3:53 PM 43.0 °F 35.4 °F 39.9 °F 89% 29.31 in 6.0 mi SE 16.1 mph 21.9 mph 0.02 in Rain Light Rain
4:11 PM 42.8 °F 35.4 °F 39.2 °F 87% 29.31 in 3.0 mi SSE 15.0 mph 23.0 mph 0.03 in Rain Rain
4:53 PM 41.0 °F 34.3 °F 39.0 °F 93% 29.33 in 5.0 mi SE 11.5 mph 19.6 mph 0.08 in Rain Light Rain
5:53 PM 42.1 °F 35.2 °F 39.9 °F 92% 29.32 in 9.0 mi SE 12.7 mph 26.5 mph 0.07 in Rain Light Rain
6:27 PM 41.0 °F 31.9 °F 39.2 °F 93% 29.33 in 10.0 mi SE 19.6 mph 28.8 mph 0.02 in Rain Light Rain
6:53 PM 42.1 °F 34.9 °F 39.0 °F 89% 29.35 in 10.0 mi SSE 13.8 mph 27.6 mph 0.02 in Rain Light Rain
7:11 PM 41.0 °F 32.8 °F 39.2 °F 93% 29.35 in 9.0 mi SE 16.1 mph 33.4 mph 0.02 in Rain Light Rain
7:36 PM 41.0 °F 31.9 °F 39.2 °F 93% 29.36 in 4.0 mi ESE 19.6 mph 33.4 mph 0.04 in Rain Light Rain
7:53 PM 41.0 °F 32.8 °F 39.0 °F 93% 29.38 in 9.0 mi SE 16.1 mph 33.4 mph 0.05 in Rain Light Rain
8:53 PM 42.1 °F 34.9 °F 39.9 °F 92% 29.40 in 5.0 mi SE 13.8 mph 28.8 mph 0.05 in Rain Light Rain
9:06 PM 42.8 °F 35.4 °F 39.2 °F 87% 29.40 in 10.0 mi SE 15.0 mph 23.0 mph 0.00 in Rain Light Rain
9:16 PM 42.8 °F 36.2 °F 39.2 °F 87% 29.40 in 10.0 mi SE 12.7 mph 25.3 mph 0.00 in   Overcast
9:53 PM 43.0 °F 35.4 °F 39.9 °F 89% 29.44 in 10.0 mi SSE 16.1 mph 24.2 mph 0.00 in Rain Light Rain
10:53 PM 43.0 °F 36.0 °F 41.0 °F 93% 29.46 in 8.0 mi SSE 13.8 mph 23.0 mph 0.04 in Rain Light Rain
11:53 PM 43.0 °F 37.2 °F 41.0 °F 93% 29.47 in 7.0 mi SE 10.4 mph 23.0 mph 0.02 in Rain Light Rain